Temp
61 61 60 60 60 60 60 60 60 61 60 60 60 60 60 60 60 64 60 71 72 68 68 83 83 83 85 81 84 85 71 71 76 77 77 88 85 91 94 92 93 96 94 96 95
61 61 60 60 60 60 60 60 60 60 60 60 60 60 60 60 64 63 73 69 68 67 73 78 78 82 76 78 80 77 71 73 82 82 78 84 84 86 88 89 90 91 93 96 95
61 60 60 60 60 60 59 59 59 60 60 60 60 60 59 62 61 71 76 70 67 69 75 84 85 82 76 78 73 76 71 78 76 77 82 84 85 89 85 86 89 88 91 93 94
61 61 61 60 60 60 59 60 59 60 59 59 59 59 58 63 58 79 72 71 68 75 76 78 80 76 74 71 74 67 76 76 73 77 81 80 85 83 85 89 92 92 91 93 93
60 60 60 60 59 59 59 59 59 59 59 58 59 59 60 58 64 85 74 73 73 71 75 77 75 76 73 74 73 69 69 71 73 71 76 81 80 81 84 90 95 94 93 92 93
59 60 59 59 59 58 58 58 58 58 58 58 59 59 58 53 82 80 80 77 75 75 76 80 79 82 78 75 73 74 74 72 68 71 66 71 79 82 85 91 91 92 92 94 95
58 58 58 58 58 58 58 57 57 58 59 59 59 61 57 62 80 81 79 79 80 78 75 83 86 80 81 75 80 76 68 69 62 62 66 68 70 76 86 89 88 91 92 92 94
58 58 58 58 58 58 58 58 57 59 60 60 60 59 53 78 80 77 80 77 81 82 83 86 87 83 80 82 75 70 71 63 64 62 63 60 57 78 87 86 85 89 91 91 94
58 58 58 58 58 58 57 57 58 60 60 60 57 56 58 72 69 76 81 75 76 80 82 85 82 77 77 71 67 69 62 63 67 69 66 57 58 70 82 85 84 87 90 91 93
58 57 57 57 57 57 56 56 60 58 60 62 62 52 63 67 75 78 81 79 73 75 73 73 74 70 71 69 58 62 63 68 60 70 68 65 64 73 81 83 82 84 88 90 92
58 57 57 57 57 56 56 56 58 49 52 58 61 64 69 76 79 75 79 76 76 73 64 70 65 60 67 70 71 69 64 64 68 72 70 67 65 71 79 82 83 85 87 88 90
57 56 57 56 56 56 56 50 61 62 55 61 63 65 71 73 67 72 80 70 68 64 70 65 60 69 73 72 69 68 64 64 70 71 70 70 69 73 78 80 84 85 86 87 88
56 56 56 56 55 56 54 57 70 67 56 64 68 63 67 71 68 67 75 74 68 65 66 62 66 72 70 68 64 66 65 65 64 70 71 69 66 70 77 80 81 83 85 86 86
55 55 55 55 54 58 56 68 70 67 48 60 62 66 69 71 63 76 77 74 69 65 67 67 73 68 66 65 67 61 71 69 66 64 60 70 57 66 74 75 79 83 83 85 85
55 56 55 54 50 50 64 69 66 56 39 66 64 79 74 67 71 68 78 75 66 67 67 64 67 65 64 67 70 66 72 68 67 65 65 64 61 69 72 69 76 81 83 85 85
55 55 55 57 55 57 68 65 57 40 37 58 65 62 62 67 69 70 69 77 78 69 69 69 76 72 70 73 72 73 68 67 67 66 55 63 62 65 69 71 76 78 81 81 82
55 56 55 60 51 67 68 52 37 36 63 58 59 64 62 62 65 63 62 62 62 56 56 65 66 72 74 67 71 70 63 54 52 53 53 66 62 66 72 75 77 77 77 79 81
54 53 58 63 66 64 58 40 34 55 57 64 65 64 58 62 59 59 59 58 66 65 61 56 53 66 71 69 64 65 64 58 46 51 57 63 56 64 74 74 76 77 77 78 79
52 63 61 64 63 56 46 34 45 56 62 61 60 55 55 57 57 52 56 58 62 66 59 58 58 71 71 74 72 65 62 71 60 60 57 61 63 68 71 71 73 74 74 75 77
56 56 59 60 59 48 41 39 50 62 63 61 51 58 52 51 49 49 50 64 61 67 72 64 55 67 69 73 73 69 72 57 60 47 46 57 57 64 65 67 71 71 72 73 76
54 49 59 56 53 42 44 47 54 64 63 55 53 53 57 54 56 51 51 61 66 64 68 64 61 58 65 63 63 63 63 64 64 62 49 48 59 70 69 70 69 70 72 73 75
49 43 60 53 41 47 49 54 55 59 63 55 52 48 49 59 56 55 56 60 66 64 58 63 57 51 57 62 65 69 65 64 54 51 57 55 57 71 70 71 71 71 72 74 75
43 50 56 51 37 42 55 56 59 57 56 50 49 46 51 56 52 60 60 62 68 65 59 62 53 42 43 54 61 61 63 66 63 61 53 49 56 70 70 69 70 69 70 72 73
43 42 46 45 43 35 38 50 51 62 59 50 48 48 45 48 55 56 55 59 68 68 63 64 57 53 48 53 58 54 58 62 61 52 55 58 59 63 66 67 70 70 69 71 71
45 42 44 37 40 40 39 43 52 50 50 49 44 44 39 40 49 54 56 57 61 55 62 64 52 56 56 57 58 59 58 58 57 59 53 59 60 65 68 68 69 70 69 69 69
40 39 44 42 46 40 38 37 48 49 47 40 41 44 41 37 45 49 57 58 56 60 59 60 48 54 49 53 54 52 56 58 58 58 57 58 57 67 69 70 68 68 67 67 67
55 48 41 44 45 39 37 39 42 51 49 50 47 45 43 44 48 49 56 56 56 59 57 55 52 50 44 51 49 48 56 57 58 59 58 54 61 67 64 64 66 66 66 66 66
MSLP
1018.73 1018.45 1018.14 1017.88 1017.71 1017.48 1017.20 1016.89 1016.70 1016.52 1016.24 1015.89 1015.76 1015.67 1015.72 1015.74 1015.62 1015.32 1013.41 1011.99 1011.98 1012.47 1012.86 1011.21 1010.94 1010.72 1010.16 1009.71 1009.54 1008.68 1008.04 1005.71 1004.90 1004.56 1004.29 1004.14 1003.68 1003.58 1003.51 1002.88 1002.69 1002.52 1002.78 1003.38 1004.70
1018.46 1018.21 1018.11 1017.77 1017.46 1017.25 1017.06 1016.97 1016.67 1016.32 1016.12 1015.91 1015.68 1015.56 1015.62 1015.70 1014.65 1012.61 1010.70 1011.11 1011.61 1012.16 1012.03 1010.57 1009.66 1009.75 1009.52 1008.98 1009.34 1008.34 1007.55 1006.18 1005.52 1005.62 1005.48 1004.92 1004.55 1004.00 1003.66 1003.03 1002.73 1003.04 1003.57 1004.03 1004.68
1018.20 1018.06 1017.78 1017.49 1017.24 1016.97 1016.78 1016.55 1016.48 1016.35 1015.98 1015.77 1015.57 1015.52 1015.55 1015.50 1013.31 1008.54 1007.83 1009.72 1011.03 1011.32 1011.36 1009.90 1009.01 1008.73 1008.36 1008.58 1009.60 1008.93 1007.29 1007.07 1007.33 1007.75 1007.15 1005.72 1004.91 1004.47 1004.03 1002.94 1003.02 1003.00 1003.30 1003.98 1004.35
1018.00 1017.63 1017.36 1017.27 1016.99 1016.75 1016.49 1016.18 1015.90 1015.82 1015.83 1015.61 1015.45 1015.26 1015.38 1014.67 1010.22 1007.21 1008.26 1008.98 1009.99 1010.78 1010.45 1009.46 1008.78 1007.78 1007.29 1007.76 1008.93 1009.36 1008.30 1008.15 1008.95 1008.86 1007.53 1006.37 1005.63 1004.96 1004.40 1003.35 1003.68 1003.79 1004.18 1004.04 1004.14
1017.76 1017.48 1017.17 1016.84 1016.65 1016.39 1016.21 1015.91 1015.67 1015.26 1015.22 1015.33 1015.13 1015.03 1014.94 1012.69 1008.95 1006.90 1007.67 1008.02 1009.26 1010.07 1008.94 1008.07 1007.66 1006.90 1006.17 1006.51 1007.82 1008.62 1008.95 1008.99 1009.71 1009.85 1009.24 1007.94 1006.56 1005.68 1004.79 1004.36 1003.99 1003.81 1004.07 1004.05 1003.94
1017.67 1017.17 1016.75 1016.44 1016.15 1015.80 1015.51 1015.40 1015.23 1015.02 1014.72 1014.70 1014.70 1014.82 1013.99 1010.51 1006.78 1007.26 1006.91 1007.31 1007.83 1008.20 1008.01 1007.36 1006.40 1006.24 1005.90 1005.71 1006.81 1007.36 1008.15 1009.55 1009.88 1010.07 1010.65 1009.10 1006.80 1006.01 1004.53 1004.28 1003.99 1003.88 1003.78 1003.83 1003.63
1017.30 1016.95 1016.51 1016.09 1015.73 1015.49 1015.13 1014.76 1014.44 1014.41 1014.24 1013.99 1014.03 1014.09 1012.52 1008.15 1006.87 1006.87 1007.02 1006.60 1007.15 1007.16 1006.91 1006.55 1006.17 1005.99 1005.38 1005.21 1005.99 1007.23 1008.19 1009.06 1009.79 1010.15 1010.69 1010.62 1007.53 1005.50 1004.70 1004.43 1003.85 1003.51 1003.47 1003.78 1003.86
1016.82 1016.35 1016.06 1015.84 1015.47 1015.06 1014.68 1014.41 1013.95 1013.58 1013.13 1012.93 1013.32 1013.43 1010.26 1006.95 1006.96 1006.67 1006.73 1006.64 1006.80 1007.06 1006.80 1006.44 1006.13 1005.36 1004.87 1005.22 1005.89 1006.35 1007.02 1007.16 1008.55 1009.96 1010.86 1011.36 1007.83 1005.66 1004.19 1004.01 1003.57 1003.18 1003.05 1003.41 1003.57
1016.55 1016.12 1015.79 1015.52 1015.13 1014.78 1014.43 1013.93 1013.52 1012.86 1012.55 1012.41 1012.94 1012.32 1008.00 1006.65 1006.25 1005.80 1005.64 1005.77 1006.36 1006.81 1006.79 1006.57 1006.49 1005.34 1005.36 1004.60 1005.06 1005.27 1004.61 1005.79 1006.27 1007.70 1009.61 1010.70 1008.15 1006.68 1005.05 1003.83 1003.23 1002.80 1002.71 1002.89 1003.16
1016.39 1015.86 1015.36 1015.05 1014.71 1014.36 1014.08 1013.55 1012.44 1012.93 1012.43 1012.38 1011.78 1011.75 1006.86 1004.53 1004.21 1004.24 1005.06 1005.31 1005.70 1006.15 1006.62 1006.52 1006.00 1004.98 1004.39 1003.68 1002.56 1003.32 1003.98 1003.92 1005.44 1005.88 1007.25 1007.74 1006.36 1006.24 1004.66 1003.62 1002.93 1002.63 1002.62 1002.43 1002.58
1016.03 1015.72 1015.24 1014.78 1014.37 1013.96 1013.56 1013.08 1011.98 1011.83 1011.21 1008.63 1007.20 1005.60 1003.95 1003.58 1003.77 1003.90 1004.33 1004.91 1004.94 1005.03 1004.69 1005.32 1004.63 1003.03 1003.06 1003.08 1002.92 1002.89 1003.54 1003.34 1004.16 1004.85 1005.61 1005.39 1005.62 1004.85 1004.25 1003.52 1002.50 1002.10 1002.03 1002.05 1002.41
1015.85 1015.39 1014.84 1014.23 1013.86 1013.46 1013.48 1012.22 1009.37 1009.20 1007.79 1006.87 1006.06 1005.29 1004.17 1004.12 1003.10 1003.32 1003.88 1003.43 1003.82 1003.37 1003.46 1004.35 1003.13 1003.21 1003.38 1003.49 1003.27 1002.63 1002.92 1003.19 1003.49 1004.70 1005.11 1004.34 1003.67 1003.78 1003.30 1003.31 1002.47 1001.79 1001.75 1002.12 1002.48
1015.30 1014.95 1014.43 1013.88 1013.14 1012.32 1011.54 1010.80 1009.44 1009.04 1006.87 1003.30 1002.67 1003.13 1003.32 1003.53 1001.96 1002.39 1002.65 1002.09 1002.47 1002.59 1002.55 1002.14 1002.34 1002.95 1003.04 1003.01 1003.27 1002.89 1002.50 1002.52 1003.11 1003.93 1003.99 1003.37 1003.20 1002.87 1002.85 1002.64 1002.16 1002.39 1002.25 1002.48 1002.45
1014.62 1014.37 1013.96 1013.50 1012.73 1011.18 1010.43 1009.18 1009.18 1009.28 1006.23 1000.81 1000.43 1000.52 1001.45 1001.92 1001.52 1001.54 1001.91 1001.56 1001.78 1001.41 1001.97 1001.83 1001.55 1002.09 1002.66 1002.46 1002.95 1002.41 1002.80 1002.76 1003.17 1003.23 1002.26 1002.96 1002.01 1001.49 1001.94 1001.62 1001.72 1001.71 1002.00 1002.35 1002.50
1014.17 1013.56 1013.25 1013.28 1012.38 1011.55 1009.67 1009.08 1009.06 1009.52 1004.06 997.93 998.81 998.47 998.80 999.91 998.91 1000.48 1001.25 1000.71 1000.56 1000.58 1001.28 1000.54 1000.85 1001.44 1001.47 1001.49 1002.27 1001.92 1002.71 1003.14 1003.14 1002.91 1002.34 1002.26 1001.95 1000.14 1001.25 1001.37 1001.26 1001.57 1002.02 1002.43 1002.68
1013.33 1012.83 1012.48 1011.90 1011.28 1010.63 1009.58 1009.39 1009.48 1007.37 1001.08 997.60 997.65 997.85 998.46 998.87 998.69 999.69 1000.63 1000.56 1000.08 1000.27 1000.93 1000.05 1000.62 1000.86 1000.73 1001.30 1002.07 1002.28 1002.88 1002.73 1002.80 1002.32 1001.73 1001.57 1001.53 999.90 1000.55 1001.28 1001.33 1002.09 1002.35 1002.92 1003.24
1012.33 1011.63 1011.47 1010.91 1009.34 1009.32 1008.68 1009.46 1008.06 1003.53 997.99 996.28 996.44 996.75 997.25 997.57 998.19 999.29 999.60 999.85 999.30 999.46 999.93 999.85 1000.39 1000.54 1000.61 1001.01 1001.65 1001.90 1001.91 1001.45 1001.70 1001.18 1000.57 1000.38 1000.82 1000.40 1000.69 1001.52 1001.56 1002.29 1003.06 1003.54 1003.57
1011.32 1010.38 1008.92 1008.04 1008.26 1008.79 1008.61 1008.46 1004.48 999.11 997.35 995.86 995.50 996.23 996.52 997.56 998.78 999.18 999.38 999.25 999.29 998.97 998.81 999.01 999.61 999.85 1000.35 1000.21 1000.44 1001.02 1000.93 999.66 999.40 999.34 999.62 1001.26 1000.76 1000.72 1001.74 1002.73 1003.19 1003.34 1003.76 1003.97 1004.02
1010.43 1008.05 1007.01 1006.60 1007.06 1008.45 1007.84 1005.55 1000.59 997.75 996.52 995.80 996.07 995.91 996.62 998.03 999.02 999.93 999.25 998.95 998.89 998.63 997.94 998.35 998.68 999.78 1000.20 999.99 1000.13 1000.50 1000.14 1000.22 1000.03 1000.48 1000.09 1000.10 1001.24 1002.21 1002.93 1003.32 1003.61 1003.97 1004.43 1004.70 1004.72
1009.51 1007.54 1005.95 1006.09 1006.85 1008.03 1006.36 1002.70 1000.07 997.73 996.71 996.50 996.26 995.88 996.26 998.18 999.07 999.80 999.93 998.56 998.64 998.69 998.43 998.38 998.75 999.65 1000.09 1000.36 1000.26 1000.14 1000.77 1000.90 1000.87 1000.14 1000.01 999.84 1000.56 1000.61 1002.43 1003.11 1003.83 1004.33 1004.62 1004.92 1004.98
1008.91 1007.25 1005.66 1006.46 1007.13 1007.33 1004.02 1001.50 999.80 997.75 997.71 997.64 997.23 997.05 996.70 997.12 997.81 999.01 999.05 998.69 998.50 998.89 999.31 999.61 999.09 1000.34 1000.90 1000.42 1000.00 1000.83 1000.02 1000.48 1000.30 1000.39 1000.47 1000.42 1000.23 1000.74 1001.83 1003.24 1003.88 1004.57 1004.90 1005.14 1005.24
1009.26 1007.09 1005.80 1007.15 1006.80 1005.37 1002.57 1000.55 999.70 998.14 997.95 998.63 998.96 999.27 998.68 996.97 997.09 997.59 997.35 997.98 998.78 999.49 999.59 1000.23 1000.53 1000.54 1000.84 1001.63 1001.38 999.96 1000.06 1000.35 1000.26 1000.76 1001.22 1000.93 1000.93 1002.02 1002.80 1003.69 1004.36 1004.80 1005.20 1005.58 1005.72
1009.17 1006.86 1006.21 1006.82 1005.89 1004.18 1001.91 1000.14 999.25 998.59 998.56 999.69 1000.02 1000.63 1000.38 998.09 997.52 996.92 997.18 998.21 998.33 999.42 999.85 1000.59 1001.04 1001.64 1002.62 1002.73 1002.01 1000.94 1000.78 1000.32 1000.77 1001.30 1001.12 1001.54 1001.78 1002.93 1003.69 1004.32 1004.86 1005.18 1005.72 1005.87 1006.15
1009.67 1007.19 1006.37 1006.46 1006.23 1005.64 1003.48 1000.42 999.32 998.69 998.76 1000.56 1001.06 1001.33 1001.21 999.77 998.89 997.64 998.45 999.21 998.66 998.80 999.38 999.90 1000.47 1000.53 1000.61 1000.62 1001.66 1001.67 1001.71 1001.63 1001.79 1001.81 1001.71 1001.39 1001.81 1003.18 1003.80 1004.21 1004.57 1005.21 1005.95 1006.07 1006.36
1009.66 1008.41 1007.99 1006.75 1006.03 1005.43 1004.08 1001.97 999.35 999.29 1000.37 1001.03 1001.55 1001.73 1001.90 1001.10 999.53 998.50 999.17 999.53 999.95 1000.48 1000.02 999.96 1001.02 1001.53 1002.14 1002.15 1002.11 1001.80 1002.03 1002.38 1002.44 1002.44 1002.54 1002.22 1002.12 1002.66 1003.18 1003.90 1004.59 1005.39 1006.25 1006.55 1006.98
1010.09 1009.93 1008.50 1007.31 1005.94 1005.40 1004.38 1002.63 1000.46 1000.40 1000.26 1001.88 1002.33 1002.35 1002.47 1002.04 1001.10 999.86 999.31 999.47 999.65 1000.34 1000.54 1001.09 1001.97 1002.46 1003.06 1003.54 1003.48 1003.12 1003.05 1003.06 1003.25 1003.39 1003.64 1003.78 1003.81 1004.19 1004.72 1005.11 1005.44 1005.81 1006.40 1006.93 1007.60
1010.05 1010.42 1009.51 1007.08 1005.95 1005.48 1004.82 1003.40 1002.17 1001.43 1001.86 1002.24 1002.44 1002.43 1002.55 1002.33 1002.13 1002.43 1001.83 1001.36 1000.91 1000.23 1000.87 1001.60 1002.39 1002.86 1003.50 1004.17 1004.20 1003.61 1002.85 1003.15 1003.49 1003.96 1004.08 1003.89 1003.95 1004.27 1005.03 1005.44 1005.90 1006.34 1006.87 1007.47 1008.13
Wind_Speed
12 13 13 12 11 11 12 11 10 12 12 11 10 8 11 12 11 15 22 7 10 13 10 12 17 18 14 8 11 4 11 14 17 13 7 6 9 5 3 5 2 2 4 9 15
11 12 13 12 12 11 10 12 11 9 11 11 10 9 8 11 16 24 16 18 22 14 10 18 21 21 15 17 7 14 16 21 7 4 6 2 5 2 8 6 7 6 4 9 16
11 12 13 14 14 12 11 10 11 11 9 9 9 8 6 9 15 12 10 31 25 22 18 16 21 24 24 20 12 16 20 17 10 8 15 15 10 6 10 10 1 1 4 9 13
13 13 13 15 15 14 14 12 11 10 11 8 9 7 3 8 7 9 8 16 30 21 18 22 20 24 25 29 22 18 19 15 7 17 16 12 10 10 10 12 5 4 3 9 15
12 14 13 13 15 15 14 15 13 11 10 9 9 5 7 9 17 11 5 9 23 23 25 25 25 26 27 26 24 24 19 6 10 15 19 23 19 19 18 13 11 6 5 9 14
15 13 12 13 14 14 13 13 12 12 11 10 9 9 9 14 3 2 5 16 22 27 25 24 22 26 26 26 28 22 20 15 3 16 16 25 23 19 19 14 17 11 9 10 11
16 15 13 15 14 14 14 13 12 14 16 15 11 12 14 23 2 5 3 9 20 26 25 24 21 23 20 25 24 19 21 13 13 12 17 18 29 23 20 18 14 16 11 9 10
15 15 13 16 16 15 15 15 15 18 19 15 13 10 12 9 12 16 15 7 14 22 21 20 13 21 17 15 14 26 18 20 19 19 14 5 26 21 18 16 19 18 14 11 13
15 15 15 16 18 17 15 15 18 16 6 12 10 9 11 6 12 17 14 12 17 18 16 18 13 19 15 16 16 19 20 24 16 28 18 15 20 26 24 15 17 17 16 13 13
17 17 15 15 18 16 13 16 14 7 6 8 2 8 11 9 10 11 16 13 20 21 17 18 15 14 18 17 21 21 25 19 18 15 29 27 26 15 20 18 17 15 18 16 14
17 18 17 17 18 15 11 6 7 5 10 13 13 11 0 8 11 15 20 22 17 24 18 20 21 24 24 23 19 16 15 14 17 13 21 24 20 19 20 14 15 14 14 12 14
17 18 19 19 19 17 12 7 16 6 11 28 26 22 17 8 10 18 23 17 21 23 21 18 23 20 19 20 21 12 17 19 10 15 18 18 19 20 17 16 17 15 13 10 9
14 17 19 21 19 16 11 13 9 5 10 14 25 22 21 15 13 24 27 16 24 23 22 20 20 20 21 21 20 18 17 14 12 13 12 8 15 15 16 13 9 9 7 7 7
14 16 18 18 16 3 10 10 12 11 9 10 15 12 20 13 12 23 28 18 16 23 23 19 14 21 20 24 23 20 15 12 12 11 12 17 13 22 20 15 14 13 8 6 3
17 16 15 11 10 9 11 5 5 3 9 11 15 6 16 24 16 28 27 20 22 21 18 17 22 24 24 21 19 14 14 17 15 14 13 12 10 6 9 13 15 11 8 6 3
21 21 17 12 9 12 13 3 7 7 10 10 12 17 24 27 20 28 29 22 15 21 20 13 15 19 19 18 16 9 11 10 10 11 14 17 12 13 11 13 12 9 5 3 3
23 23 18 15 15 15 8 3 7 9 4 12 14 21 24 25 18 26 31 27 19 20 21 14 16 14 15 16 16 18 16 10 11 11 11 5 12 15 9 5 3 4 4 4 5
23 25 17 14 11 16 8 6 11 15 22 4 9 19 22 26 15 21 25 25 23 20 19 18 21 22 17 18 14 20 18 9 11 11 10 12 9 8 6 5 4 5 6 6 7
30 11 11 8 8 9 8 9 13 14 5 16 10 16 18 20 11 11 16 24 23 22 17 20 19 21 17 13 17 23 20 18 7 2 5 10 7 8 10 10 7 8 9 9 8
12 14 10 6 8 9 9 12 16 16 9 6 16 14 20 25 15 18 21 23 23 20 10 9 14 16 17 13 16 11 17 11 9 11 11 9 6 3 15 12 11 9 8 8 7
9 8 9 6 8 5 14 15 22 17 12 6 10 8 15 27 19 25 19 15 17 17 12 8 8 12 11 18 17 12 12 11 8 11 8 9 4 5 11 10 11 10 7 6 6
6 7 8 6 4 7 16 24 24 16 13 2 3 5 10 24 22 24 19 16 21 13 18 10 6 12 11 5 6 11 18 16 9 9 7 7 3 7 11 10 9 8 6 6 6
8 7 4 6 4 5 15 21 25 17 8 3 4 7 14 11 14 17 16 1 31 30 22 15 11 9 4 1 5 11 6 8 7 5 10 10 2 6 11 10 6 4 5 6 4
4 6 4 3 4 4 8 17 19 15 17 5 3 5 6 4 9 16 15 6 14 25 13 11 6 12 8 13 14 11 10 9 11 8 11 11 5 11 11 9 7 1 6 5 4
3 5 6 5 2 11 3 13 11 12 6 4 3 5 5 2 5 15 16 19 13 7 6 10 10 7 10 11 6 9 11 10 11 11 10 9 10 8 6 5 7 6 3 2 2
4 5 5 10 9 12 7 6 6 8 4 6 6 9 10 2 4 12 20 15 11 8 11 5 8 10 9 6 3 4 6 9 10 9 9 9 10 6 8 7 6 2 4 4 4
5 4 5 8 10 7 6 9 7 4 14 16 13 11 6 1 4 12 14 11 8 12 10 7 10 9 7 5 2 7 15 14 11 8 10 12 7 3 6 3 0 3 4 4 2
Wind_Direction
335 332 331 330 331 330 328 324 321 320 317 315 305 290 291 290 271 249 242 251 206 245 295 250 203 219 228 203 252 215 239 229 212 216 221 174 219 215 320 252 208 205 328 66 138
320 329 324 321 322 323 321 322 318 309 312 310 306 284 271 282 274 261 239 214 215 218 226 214 201 204 207 209 244 221 217 230 215 286 273 210 267 308 268 215 191 203 166 141 158
326 324 326 322 319 315 314 313 312 310 300 306 301 291 264 284 271 249 207 212 214 201 229 225 220 202 204 201 214 239 237 224 269 309 291 283 270 259 258 236 73 246 179 177 172
325 325 323 319 316 315 313 307 304 305 305 306 293 283 203 247 264 113 98 205 203 211 216 216 225 207 208 196 199 249 254 246 245 284 276 260 281 266 275 270 123 102 339 191 190
329 325 323 321 317 315 311 309 306 300 296 295 283 221 215 224 247 259 326 177 179 199 205 206 205 208 209 205 207 206 227 220 259 255 278 294 279 283 277 275 263 253 258 224 196
325 318 316 316 312 310 308 304 296 293 290 277 273 189 237 250 295 263 282 151 173 187 195 207 207 208 219 208 207 205 218 197 235 279 284 282 280 261 263 264 260 246 241 217 219
319 319 320 315 313 315 313 307 300 298 291 270 242 205 240 242 208 223 256 186 186 189 192 202 209 206 224 212 211 226 204 200 209 229 251 280 281 263 256 269 254 234 219 225 218
318 310 316 318 316 312 309 308 303 297 291 261 199 198 254 254 244 251 234 203 189 197 207 205 213 210 225 204 198 215 213 216 209 205 242 195 270 268 262 244 242 241 223 217 221
319 317 321 319 315 313 313 308 301 302 289 162 168 213 257 129 221 226 201 185 172 186 216 205 220 216 195 198 191 205 216 218 207 190 200 182 250 248 276 254 239 234 233 218 215
325 321 316 316 314 310 308 299 292 282 170 179 317 218 227 225 192 191 186 168 165 167 174 191 206 204 217 206 204 203 217 212 206 210 196 209 238 236 253 246 241 240 230 226 227
323 323 318 316 309 303 305 314 202 197 219 212 196 243 149 181 146 174 168 164 170 171 179 196 198 207 205 215 234 208 212 216 205 208 208 214 220 234 235 236 237 221 235 237 241
320 319 320 312 309 300 290 237 259 346 270 221 251 231 264 310 194 166 166 162 172 181 174 182 213 204 211 209 226 231 205 218 171 174 215 211 230 208 231 229 238 228 219 232 261
307 309 313 311 309 286 238 241 275 244 250 255 214 227 221 212 203 174 184 167 180 186 192 192 195 210 207 199 211 217 224 205 208 190 219 229 222 230 225 230 207 234 242 257 270
302 309 311 316 288 358 268 265 241 245 268 230 192 225 199 212 217 175 197 172 182 193 189 210 198 194 199 206 206 209 219 237 216 228 222 194 243 205 225 210 209 216 202 205 165
299 303 307 298 295 278 293 326 281 171 268 137 161 155 170 187 151 178 199 189 186 184 189 193 191 195 203 202 194 221 173 216 224 230 250 198 243 210 184 219 216 214 200 164 129
297 291 296 284 247 247 260 266 279 227 239 171 151 172 161 197 185 160 187 213 192 175 202 169 192 201 202 194 187 170 198 205 224 227 226 231 218 222 190 218 205 152 166 97 34
300 292 287 277 257 252 225 186 221 228 183 169 178 172 182 183 161 174 178 194 193 180 193 180 191 188 192 188 194 200 185 179 199 202 237 188 196 247 114 143 122 136 90 32 27
306 295 276 257 247 239 169 198 240 216 237 69 183 179 187 178 153 173 179 187 200 202 179 187 182 181 196 202 188 195 199 236 213 211 194 144 219 129 131 128 147 104 92 67 46
309 294 291 267 213 199 194 213 220 235 230 242 222 184 178 173 168 157 210 194 197 200 208 192 194 177 176 200 191 193 212 235 273 352 285 171 118 150 151 146 142 124 109 87 69
309 306 271 114 166 179 211 230 231 255 286 227 216 192 184 169 160 175 197 196 191 204 209 194 160 190 169 207 205 200 199 194 214 226 218 207 219 150 172 157 141 132 110 85 73
293 309 66 114 141 182 215 222 235 251 307 284 234 203 219 176 180 177 197 176 176 171 188 183 215 157 168 206 186 195 206 224 255 223 222 246 206 91 132 155 135 120 106 80 53
304 303 89 150 214 204 234 225 234 254 218 150 80 26 264 181 195 184 181 195 181 199 186 158 192 173 170 55 313 222 211 207 222 201 248 287 307 95 134 141 140 124 89 61 36
300 292 60 163 291 250 251 235 236 251 237 179 138 136 306 234 201 186 159 270 173 183 183 174 159 150 178 222 203 209 196 216 237 280 227 233 204 144 142 150 131 70 28 43 24
294 306 51 156 41 293 330 254 232 241 234 128 110 126 247 154 235 179 134 130 187 190 156 181 156 204 193 193 183 184 188 201 218 229 240 239 197 166 181 191 195 87 348 358 24
271 337 2 311 331 348 239 292 239 201 79 77 74 267 123 133 143 157 135 127 133 160 119 173 174 131 94 101 150 188 188 190 216 237 252 260 261 252 196 231 312 334 261 240 107
347 323 324 290 320 356 7 325 67 90 66 81 78 109 134 218 65 136 140 140 144 156 140 171 137 148 116 109 122 194 204 209 222 232 229 259 242 265 269 278 262 312 173 166 133
4 296 274 289 350 342 319 331 344 115 32 128 116 103 90 139 297 76 62 65 13 149 118 126 146 184 173 155 113 253 224 217 220 214 238 230 249 151 216 205 152 136 153 137 131